Flag for Poland Weather past 2 weeks in Kielce, Poland

Now
66 °F

Sprinkles. Overcast.


Feels Like: 66 °F
Forecast: 58 / 89 °F
Wind: 3 mph from North

Location: Kielce

Current Time: Aug 29, 2015 at 12:19:48 PM

Latest Report: Aug 29, 2015 at 11:00 AM


Visibility: 17 mi

Pressure: 30.28 "Hg

Humidity: 78%

Dew point: 59 °F

Location of KielceLocation

Historic Weather in Kielce — Graph

°F

Kielce temperature yesterday

Maximum temperature yesterday: 90 °F (at 3:00 PM)
Minimum temperature yesterday: 53 °F (at 5:00 AM)
Average temperature yesterday: 73 °F

Past Weeks' High & Low Weather Summary

 TemperatureHumidityPressure
High90 °F (Aug 28, 3:00 PM)100% (Aug 25, 10:00 PM)30.34 "Hg (Aug 25, 10:00 PM)
Low49 °F (Aug 27, 5:00 AM)26% (Aug 19, 3:00 PM)29.74 "Hg (Aug 15, 5:00 PM)
Average68 °F56%30.04 "Hg
* Reported Aug 14 11:00 AM — Aug 29 11:00 AM, Kielce, Weather by CustomWeather, © 2015

Note: Actual official high and low records may vary slightly from our data, if they occured in-between our weather recording intervals... More about our weather records

Advertising

Kielce weather history for previous 24 hours

 ConditionsComfort  
Time TempWeatherWind HumidityBarometerVisibility
11:00 AM
Sat, Aug 29
66 °FSprinkles. Overcast.3 mph78%30.28 "Hg17 mi
10:00 AM65 °FOvercast.1 mph84%30.27 "Hg12 mi
7:00 AM64 °FFog.2 mph94%30.23 "Hg3 mi
6:00 AM65 °FLow clouds.1 mph94%30.22 "Hg2 mi
5:00 AM64 °FFog.1 mph96%30.20 "Hg2 mi
3:00 AM65 °FRain showers. Overcast.1 mph93%30.19 "Hg2 mi
2:00 AM66 °FSprinkles. Low clouds.2 mph87%30.17 "Hg15 mi
1:00 AM70 °FOvercast.2 mph72%30.15 "Hg22 mi
11:00 PM
Fri, Aug 28
71 °FPassing clouds.1 mph68%30.11 "Hg14 mi
9:00 PM74 °FPassing clouds.2 mph60%30.08 "Hg13 mi
8:00 PM76 °FOvercast.2 mph57%30.06 "Hg11 mi
7:00 PM78 °FOvercast.5 mph54%30.04 "Hg12 mi
6:00 PM84 °FOvercast.5 mph44%29.99 "Hg13 mi
5:00 PM85 °FOvercast.5 mph42%29.98 "Hg17 mi
4:00 PM89 °FScattered clouds.6 mph36%29.97 "Hg17 mi
3:00 PM90 °FScattered clouds.5 mph32%29.96 "Hg19 mi
2:00 PM89 °FOvercast.6 mph34%29.96 "Hg16 mi
1:00 PM87 °FOvercast.5 mph38%29.97 "Hg17 mi
12:00 PM86 °FOvercast.6 mph40%29.96 "Hg19 mi
Weather by CustomWeather, © 2015

See weather overviewHow to use our weather pages